Starlink 5876

operational
NORAD ID: 56321 Int'l Des: 2023-058 Owner: SPXS Country: US Constellation: starlink
LEOCIRCULARRETROGRADESSO

About Starlink 5876

Description loading...

Live Position

Loading 3D Globe...

Upcoming Passes

Altitude History

Altitude vs Time

uPlot chart will show altitude changes over time

Two-Line Element Set

1 56321U 23058E 25303.25879286 -.00008001 00000-0 -55091-3 0 9999
2 56321 97.6020 302.7001 0002387 86.6654 273.4846 15.05646472138221
Epoch: Oct 30, 2025 • Age: 19 hours

Current Status

Altitude 578.6 km
Velocity 7.57 km/s
Sub-Earth Point -75.92°S, 79.24°W
Launch Date Apr 27, 2023
Age 2.5 years
Type internet

Technical Details

Classification Payload
Mass 300.00 kg
Dry Mass 260.00 kg
Total Mass 300.00 kg
Length 0.20 m
Diameter 2.80 m
Span 9.00 m
Shape Box + pan
Manufacturer SPXS
Bus Type Starlink
Phase Status In Orbit
Owner/State SPXS/US

Large Constellations

Loading constellations...